Regional Weather Roundup
Issued by NWS

Home | Current Version | Previous Version | Text Only | Print | Product List | Glossary Off
Versions: 1 2 3 4 5 6 7 8 9 10 11 12 13 14 15 16 17 18 19 20 21 22 23 24 25 26 27 28 29 30 31 32 33 34 35 36 37 38 39 40 41 42 43 44 45 46 47 48 49 50

000
ASUS43 KIND 260409
RWRIN

WEATHER ROUNDUP FOR INDIANA
NATIONAL WEATHER SERVICE INDIANAPOLIS IN
1200 AM EDT THU APR 26 2018

NOTE: "FAIR" INDICATES FEW OR NO CLOUDS BELOW 12,000 FEET WITH NO
SIGNIFICANT WEATHER AND/OR OBSTRUCTIONS TO VISIBILITY.

* - STATION DOES NOT REPORT WEATHER SUCH AS PRECIPITATION OR FOG.

+ - STATION NOT QUALITY CONTROLLED BY THE NATIONAL WEATHER SERVICE.
    USE DATA WITH CAUTION...ESPECIALLY DEWPOINT AND RELATIVE
    HUMIDITY OBSERVATIONS.

INZ001>003-010>013-019-020-260500-
NORTHWEST INDIANA

CITY           SKY/WX    TMP DP  RH WIND       PRES   REMARKS
GARY /AIRPORT/ FAIR      35  32  86 CALM      30.02F
KNOX *+        FAIR      34  32  93 NW5       30.00S WCI  30
LA PORTE +     FAIR      39  31  75 N13       29.99F WCI  31
MICHIGAN CITY+ FAIR      34  34 100 CALM      30.01F
MONTICELLO +   FAIR      36  28  72 NW6       30.00S WCI  31
RENSSELAER +   FAIR      37  25  60 N3        30.00F
VALPARAISO     FAIR      39  31  72 N3        30.00F

$$

LMZ046-743>745-260500-
SOUTHERN LAKE MICHIGAN

STATION/POSITION TIME  TEMP    WIND        PRES    WAVE
                       AIR SEA DIR/SP/G            HT
                 (UTC) (F)     (DEG/KT/KT) (MB)    (FT)
BURNS HARBOR     0340   40     330/  6/  8 1016.9F
MICHIGAN CITY    0340   38     290/  9/ 10   N/A

$$

INZ004-005-014>016-021>024-260500-
NORTH CENTRAL INDIANA

CITY           SKY/WX    TMP DP  RH WIND       PRES   REMARKS
GOSHEN         FAIR      39  30  70 NW8       29.97F WCI  33
LOGANSPORT +   FAIR      41  30  65 NW5       29.99F
PERU/GRISSOM   FAIR      42  32  67 W6        29.97F
ROCHESTER +    FAIR      41  30  65 NW7       29.98F
SOUTH BEND     FAIR      35  29  78 NW5       29.99F WCI  31
WARSAW +       FAIR      37  30  75 NW6       29.97F WCI  33

$$

INZ006>009-017-018-025>027-260500-
NORTHEAST INDIANA

CITY           SKY/WX    TMP DP  RH WIND       PRES   REMARKS
ANGOLA *+      FAIR      41  32  70 NW6       29.95F
AUBURN +       FAIR      41  32  70 NW7       29.96F
FORT WAYNE     FAIR      43  30  60 NW6       29.95F
HUNTINGTON +   FAIR      41  27  57 NW5       29.96F
KENDALLVILLE + FAIR      40  27  59 NW5       29.95F WCI  37

$$

INZ028-029-035-036-043>045-051>053-260500-
WEST CENTRAL INDIANA

CITY           SKY/WX    TMP DP  RH WIND       PRES   REMARKS
CRAWFORDSVL +  FAIR      42  32  67 N6        29.99S
GREENCASTLE +  FAIR      45  30  57 CALM      29.99S
LAFAYETTE      FAIR      42  32  67 N5        30.00F
TERRE HAUTE    FAIR      47  33  58 NE6       29.98F

$$

INZ030>032-037>040-046>048-054>057-064-065-260500-
CENTRAL INDIANA

CITY           SKY/WX    TMP DP  RH WIND       PRES   REMARKS
FISHERS *+     FAIR      43  34  70 N3        29.98
FRANKFORT +    FAIR      44  32  63 N5        30.01F
GREENWOOD *+   FAIR      46  30  52 N8        29.98S
INDIANAPOLIS   MOCLDY    47  28  47 N9        29.97F
-EAGLE CREEK   FAIR      46  28  49 N6        29.97F
KOKOMO +       FAIR      39  30  70 W8        29.98F WCI  33
MARION +       FAIR      39  30  69 CALM      29.98S
MT COMFORT *+  FAIR      41  36  81 N9        29.98F
SHELBYVILLE    FAIR      47  33  58 N12       29.96F
ZIONSVILLE +   FAIR      40  32  72 N5        29.99F WCI  37

$$

INZ033-034-041-042-049-050-058-059-260500-
EAST CENTRAL INDIANA

CITY           SKY/WX    TMP DP  RH WIND       PRES   REMARKS
MUNCIE         FAIR      43  31  62 W6        29.97S
RICHMOND +     FAIR      45  34  65 NW9       29.95F

$$

INZ060-061-067>069-081>083-085>088-260500-
SOUTHWEST INDIANA

CITY           SKY/WX    TMP DP  RH WIND       PRES   REMARKS
EVANSVILLE     FAIR      60  50  69 N3        29.93F
HUNTINGBURG +  FAIR      58  47  66 NE3       29.94F
WASHINGTON +   FAIR      55  36  49 N13       29.96R

$$

INZ062-063-066-070>080-084-089>092-260500-
SOUTH CENTRAL AND SOUTHEAST INDIANA

CITY           SKY/WX    TMP DP  RH WIND       PRES   REMARKS
BATESVILLE +   PTCLDY    50  34  53 MISG      29.95S
BEDFORD +      FAIR      55  37  50 N6        29.95S
BLOOMINGTON    FAIR      51  34  52 N9        29.97S
FRENCH LICK *+ FAIR      55  37  50 CALM      29.95S
MADISON *+     FAIR      54  43  66 N3        29.96S
NORTH VERNON + FAIR      50  36  57 N9G16     29.96S
SEYMOUR +      FAIR      55  37  50 N10       29.96S

$$





USA.gov is the U.S. government's official web portal to all federal, state and local government web resources and services.